MINOTAUR 4 DEB, 52037

Orbit data source: Space-Track

MINOTAUR 4 DEB, 52037 is space debris in LEO originally from a launch on Wed, 15 Jul 2020 UTC launched from the Wallops Island (WLPIS). Debris objects in space refer to the collection of defunct objects orbiting the Earth. Examples of debris include non-operational satellites, rocket bodies, and fragments generated from explosions, collisions, or faulty payload assembly.

Loading next visibility...
Identifier
52037, 2020-046AB
Orbit
LEO
Country
Flag of USUS
Related business
Manufacturer
NGIS FSG
Mission
Spacecraft
Bus & Motor
Unknown
Mass
Unknown
Launch date (UTC)
2020-07-15 (5 years ago)
Launch vehicle
Unknown
Launch site
Wallops Island (WLPIS)
Object type
Payload
Rocket body
Debris
Shape & HBR
Unknown shape, 0.1 m
Radar Cross Section
Small (<0.1 m²)

Expand to show TLE details & history
Last TLE update: 1 day ago

TLE from 1 day ago
0 MINOTAUR 4 DEB
1 52037U 20046AB  25347.25217712  .00002786  00000-0  22012-3 0  9990
2 52037  53.9801 335.8480 0007764 187.0128 173.0764 15.03815973213890
Epoch: 2025-12-13T06:03Z
TLE epoch observation values (Epoch: 2025-12-13T06:03:08.103Z)
Latitude
-0.00004°
Longitude
162.8821°
Altitude
561.462 km
Speed
7.579 km/s
True Right ascension
22h 23m 23s
True Declination
0° 00' 00"
Sunlit
Object was in daylight at epoch
Visualization orbit readout
Latitude
Unknown
Longitude
Unknown
Altitude
Unknown
Speed
Unknown
Apparent Right ascension
Unknown
Apparent Declination
Unknown
Sunlit
N/A
Visualization observer readout
Local Sidereal Time
13:23:20
Azimuth
Unknown
Elevation
Unknown
Doppler factor
Unknown
Orbital elements
Apogee altitude
560.649 km
Perigee altitude
549.883 km
Semi-major axis
6,933.403 km
Eccentricity
0.00078
Inclination
53.9801°
RAAN
335.848°
Arg. of periapsis
187.0128°
True anomaly
173.08711°
Mean anomaly
173.0764°
Eccentric anomaly
173.08176°
Mean motion
3.75944 °/min
Orbital period
95.76 mins
BSTAR
0.00022012
Loading maneuver chart data...
Computing Atmospheric mass density...

Documentation

Showing up to 5 results
|